Showing default

COSMOS 1828, 17583

Orbit data source: Space-Track

COSMOS 1828, 17583 is a payload satellite owned by UNKS (CIS) in LEO that was launched on Fri, 13 Mar 1987 UTC via a TSIKLON-3 launch vehicle from the Plesetsk Missile And Space Complex (PKMTR). Payload-class satellites include a variety of spacecraft equipped with specific instruments for various scientific and technological missions. These include communications satellites like Starlink; space stations such as the ISS; scientific satellites like the Hubble; Earth observation satellites from companies like Planet Labs, Umbra, and HawkEye 360; GPS; miniature CubeSats for education and research; and military/defense satellites.

Loading next visibility...
Identifier
17583, 1987-026B
Orbit
LEO
Country
Flag of CISCIS
Related business
Manufacturer
NPO PM
Mission
Defense Communications
Bus & Motor
STRELA-3, Unknown motor
Mass
225 kg wet, 225 kg dry
Launch date (UTC)
1987-03-13 (39 years ago)
Launch vehicle
TSIKLON-3
Launch site
Plesetsk Missile And Space Complex (PKMTR)
Object type
Payload
Rocket body
Debris
Shape & HBR
Cyl, 0.8 m
Radar Cross Section
1.257 m², Large (>1 m²)

Expand to show TLE details & history
Last TLE update: 19 hours ago

TLE from 19 hours ago
0 COSMOS 1828
1 17583U 87026B   25261.22202856  .00000009  00000-0 -10511-4 0  9992
2 17583  82.5716 341.0640 0018066 334.7019  53.1063 12.66261071780129
Epoch: 2025-09-18T05:19Z
TLE epoch observation values (Epoch: 2025-09-18T05:19:43.267Z)
Latitude
27.75709°
Longitude
-92.33793°
Altitude
1,392.061 km
Speed
7.17 km/s
True Right ascension
22h 59m 54s
True Declination
27° 37' 38"
Sunlit
Object was in full shadow at epoch
Visualization orbit readout
Latitude
Unknown
Longitude
Unknown
Altitude
Unknown
Speed
Unknown
Apparent Right ascension
Unknown
Apparent Declination
Unknown
Sunlit
N/A
Visualization observer readout
Local Sidereal Time
17:27:42
Azimuth
Unknown
Elevation
Unknown
Doppler factor
Unknown
Orbital elements
Apogee altitude
1,408.565 km
Perigee altitude
1,380.481 km
Semi-major axis
7,772.66 km
Eccentricity
0.00181
Inclination
82.5716°
RAAN
341.064°
Arg. of periapsis
334.7019°
True anomaly
53.27209°
Mean anomaly
53.1063°
Eccentric anomaly
53.18917°
Mean motion
3.1673 °/min
Orbital period
113.66 mins
BSTAR
-0.000010511
Loading maneuver chart data...
Computing Atmospheric mass density...
Loading historical data...
Loading historical data...
Loading historical data...
Loading historical data...
Loading historical data...
Loading historical data...
Loading historical data...

Documentation

Showing up to 5 results
|